TimeEET,TemperatureF,Dew PointF,Humidity,Sea Level PressureIn,VisibilityMPH,Wind Direction,Wind SpeedMPH,Gust SpeedMPH,PrecipitationIn,Events,Conditions,WindDirDegrees,DateUTC
4:50 AM,68.0,57.2,68,29.74,6.2,WSW,19.6,-,N/A,,Scattered Clouds,240,2012-12-03 02:50:00
5:20 AM,68.0,57.2,68,29.74,6.2,WSW,15.0,-,N/A,,Scattered Clouds,240,2012-12-03 03:20:00
5:50 AM,68.0,59.0,73,29.77,6.2,West,13.8,-,N/A,,Scattered Clouds,260,2012-12-03 03:50:00
6:20 AM,68.0,59.0,73,29.77,6.2,WSW,11.5,-,N/A,,Scattered Clouds,240,2012-12-03 04:20:00
6:50 AM,66.2,59.0,78,29.80,6.2,West,8.1,-,N/A,,Scattered Clouds,270,2012-12-03 04:50:00
7:20 AM,62.6,50.0,63,29.80,6.2,WSW,5.8,-,N/A,,Scattered Clouds,250,2012-12-03 05:20:00
7:50 AM,59.0,50.0,72,29.80,6.2,WSW,5.8,-,N/A,,Scattered Clouds,250,2012-12-03 05:50:00
8:00 AM,60,49,59,29.82,6,WSW,5.8,,,,Partly Cloudy,250,2012-12-03 06:00:00
8:20 AM,60.8,48.2,63,29.80,6.2,SW,12.7,-,N/A,,Scattered Clouds,230,2012-12-03 06:20:00
8:50 AM,62.6,50.0,63,29.80,6.2,WSW,15.0,-,N/A,,Scattered Clouds,240,2012-12-03 06:50:00
9:20 AM,64.4,46.4,52,29.80,6.2,WSW,13.8,-,N/A,,Scattered Clouds,240,2012-12-03 07:20:00
9:50 AM,68.0,51.8,56,29.83,6.2,WSW,18.4,-,N/A,,Scattered Clouds,240,2012-12-03 07:50:00
10:20 AM,68.0,51.8,56,29.83,6.2,WSW,18.4,-,N/A,,Scattered Clouds,240,2012-12-03 08:20:00
10:50 AM,69.8,50.0,49,29.83,6.2,WSW,16.1,-,N/A,,Scattered Clouds,250,2012-12-03 08:50:00
11:20 AM,69.8,50.0,49,29.83,6.2,SW,16.1,-,N/A,,Scattered Clouds,230,2012-12-03 09:20:00
11:50 AM,71.6,50.0,46,29.77,6.2,SW,18.4,-,N/A,,Scattered Clouds,220,2012-12-03 09:50:00
12:20 PM,71.6,50.0,46,29.77,6.2,SW,20.7,-,N/A,,Scattered Clouds,230,2012-12-03 10:20:00
12:50 PM,71.6,51.8,50,29.74,6.2,WSW,19.6,-,N/A,,Scattered Clouds,240,2012-12-03 10:50:00
1:20 PM,69.8,46.4,43,29.74,6.2,SW,13.8,-,N/A,,Scattered Clouds,220,2012-12-03 11:20:00
1:50 PM,69.8,46.4,43,29.74,6.2,SW,16.1,-,N/A,,Scattered Clouds,220,2012-12-03 11:50:00
2:00 PM,70,47,32,29.75,6,SW,16.1,,,,Partly Cloudy,220,2012-12-03 12:00:00
2:20 PM,69.8,46.4,43,29.74,6.2,SW,15.0,-,N/A,,Scattered Clouds,230,2012-12-03 12:20:00
2:50 PM,69.8,46.4,43,29.74,6.2,SW,13.8,-,N/A,,Scattered Clouds,220,2012-12-03 12:50:00
3:20 PM,68.0,50.0,52,29.71,6.2,SW,11.5,-,N/A,,Scattered Clouds,230,2012-12-03 13:20:00
3:50 PM,68.0,50.0,52,29.71,6.2,SW,16.1,-,N/A,,Scattered Clouds,230,2012-12-03 13:50:00
4:20 PM,66.2,50.0,56,29.71,6.2,SW,17.3,-,N/A,,Scattered Clouds,230,2012-12-03 14:20:00
4:50 PM,66.2,50.0,56,29.71,6.2,SW,16.1,-,N/A,,Scattered Clouds,230,2012-12-03 14:50:00
5:20 PM,64.4,50.0,59,29.68,6.2,SW,15.0,-,N/A,,Scattered Clouds,220,2012-12-03 15:20:00
5:50 PM,64.4,51.8,64,29.68,6.2,SW,15.0,29.9,N/A,,Scattered Clouds,220,2012-12-03 15:50:00
6:20 PM,62.6,51.8,68,29.68,6.2,SW,20.7,32.2,N/A,,Scattered Clouds,230,2012-12-03 16:20:00
6:50 PM,62.6,51.8,68,29.65,6.2,SW,18.4,-,N/A,Rain,Light Rain,220,2012-12-03 16:50:00
7:20 PM,62.6,51.8,68,29.62,6.2,SW,16.1,-,N/A,Rain,Light Rain,220,2012-12-03 17:20:00
7:50 PM,64.4,50.0,59,29.65,6.2,SW,21.9,33.4,N/A,,Mostly Cloudy,230,2012-12-03 17:50:00
8:00 PM,65,50,47,29.65,6,SW,21.9,,,Rain,Light Rain,230,2012-12-03 18:00:00